TIANLIAN 1-04 (41869 NORAD) Tracking and Keplerian Element Data

This shows tracking and keplerian element data for the satellite.

Feedback or suggestion? Click here.




ElementValue
Catalog41869
NameTIANLIAN 1-04
Epoch Orbit913
Epoch Day114.12294691
Epoch Year2019
RAAN284.4801
Inclination1.1955
Eccentricity0.0014988
Argument of Perigee151.7644
Mean Anonmoly256.8602
Mean Motion1.00272813
Decay Rate-1.22E-06
L11 41869U 16072A 19114.12294691 -.00000122 00000-0 00000+0 0 9999
L22 41869 1.1955 284.4801 0014988 151.7644 256.8602 1.00272813 9132

Live tracking and technical data element details for TIANLIAN 1-04 (NORAD 41869). TIANLIAN 1-04 can be tracked NOW for your location showing map with azimuth and elevation plus other details from your city location.

Track the satellite on the map from your city or location and see movement details for azimuth, elevation, latitude, longitude, range, height, and movement on the map or in text.







IsCatalogInMostPopularTable: catalog: 41869, numindb: 194
Update: records affected: 1



GetName: 41869 TIANLIAN 1-04

Hit Count: updated at: Thu, 25 Apr 2019 20:20:36 GMT